STARLINK-1151, 45081

Orbit data source: Space-Track

STARLINK-1151, 45081 is a payload satellite owned by SpaceX/Seattle (US) in LEO that was launched on Wed, 29 Jan 2020 UTC via an FALCON 9 launch vehicle from the Air Force Eastern Test Range (AFETR). Payload-class satellites include a variety of spacecraft equipped with specific instruments for various scientific and technological missions. These include communications satellites like Starlink; space stations such as the ISS; scientific satellites like the Hubble; Earth observation satellites from companies like Planet Labs, Umbra, and HawkEye 360; GPS; miniature CubeSats for education and research; and military/defense satellites.

Loading next visibility...
Identifier
45081, 2020-006AP
Orbit
LEO
Country
Flag of USUS
Related business
Manufacturer
SpaceX/Seattle
Mission
Operational Commercial Communications
Bus & Motor
STARLINK, Unknown motor
Mass
260 kg wet, ~248 kg dry
Launch date (UTC)
2020-01-29 (6 years ago)
Launch vehicle
FALCON 9
Launch site
Air Force Eastern Test Range (AFETR)
Object type
Payload
Rocket body
Debris
Shape & HBR
Box + 1 Pan, 10.1 m
Radar Cross Section
13.562 m², Large (>1 m²)

Expand to show TLE details & history
Last TLE update: 11 hours ago

TLE from 11 hours ago
0 STARLINK-1151
1 45081U 20006AP  25348.33336806  .02076422  00000-0  82568-1 0  9993
2 45081  53.0545 289.1643 0002149  70.7837  48.9075 15.21174430  5548
Epoch: 2025-12-14T08:00Z
TLE epoch observation values (Epoch: 2025-12-14T08:00:03.000Z)
Latitude
44.09857°
Longitude
-140.54394°
Altitude
505.799 km
Speed
7.617 km/s
True Right ascension
04h 10m 51s
True Declination
43° 55' 13"
Sunlit
Object was in full shadow at epoch
Visualization orbit readout
Latitude
Unknown
Longitude
Unknown
Altitude
Unknown
Speed
Unknown
Apparent Right ascension
Unknown
Apparent Declination
Unknown
Sunlit
N/A
Visualization observer readout
Local Sidereal Time
18:01:51
Azimuth
Unknown
Elevation
Unknown
Doppler factor
Unknown
Orbital elements
Apogee altitude
504.048 km
Perigee altitude
501.091 km
Semi-major axis
6,880.706 km
Eccentricity
0.00021
Inclination
53.0545°
RAAN
289.1643°
Arg. of periapsis
70.7837°
True anomaly
48.92606°
Mean anomaly
48.9075°
Eccentric anomaly
48.91678°
Mean motion
3.80271 °/min
Orbital period
94.67 mins
BSTAR
0.082568
Loading maneuver chart data...
Computing Atmospheric mass density...
Loading historical data...
Loading historical data...
Loading historical data...
Loading historical data...
Loading historical data...
Loading historical data...
Loading historical data...

Documentation

Showing up to 5 results
|